Location: Nag� el Ma?a??a
(24.0667°N, 32.8833°E)
Time: 23:28:26
(UTC+00:00)

SJ 16-02 - Pass Details

Date: 27 January 2022
Orbit: 605 x 615 km, 75.0° (Epoch: 17 May)

Event Time Altitude Azimuth Distance (km) Brightness Sun altitude
Rises 03:24:07 0° 7° (N) 2,884 4.7 -15.6°
Reaches altitude 10° 03:26:55 10° 25° (NNE) 1,976 4.1 -15.0°
Maximum altitude 03:30:07 19° 71° (ENE) 1,454 4.0 -14.3°
Drops below altitude 10° 03:33:17 10° 118° (ESE) 1,969 5.3 -13.5°
Sets 03:36:03 0° 135° (SE) 2,869 5.9 -12.9°
